Iron Mountain, MI

12:17 AM CDT on August 30, 2016 (GMT -0500)
Ford

Weather History for KIMT - January, 2014

Change the Weather History Date:

Thursday, January 30, 2014

  Actual Average Record
Temperature  
Mean Temperature 13 °F -  
Max Temperature 21 °F 25 °F 43 °F (2016)
Min Temperature 3 °F 0 °F -31 °F (1951)
Degree Days  
Heating Degree Days 52    
Moisture  
Dew Point 11 °F    
Average Humidity 79    
Maximum Humidity 93    
Minimum Humidity 62    
Precipitation  
Precipitation 0.11 in - - ()
Sea Level Pressure  
Sea Level Pressure 29.60 in    
Wind  
Wind Speed 9 mph (SW)    
Max Wind Speed 17 mph    
Max Gust Speed 23 mph    
Visibility 5 miles    
Events Fog , Snow    
Averages and records for this station are not official NWS values.
T = Trace of Precipitation, MM = Missing Value Source: NWS Daily Summary

Daily Weather History Graph

Daily Weather History Graph

Search for Another Location

Airport or City:

Trip Planner

Search our weather history database for the weather conditions in past years. The results will help you decide how hot, cold, wet, or windy it might be!

Date:

Astronomy

Jan. 30, 2014 Rise Set
Actual Time 7:16 AM CST 4:55 PM CST
Civil Twilight 6:44 AM CST 5:27 PM CST
Nautical Twilight 6:08 AM CST 6:03 PM CST
Astronomical Twilight 5:33 AM CST 6:38 PM CST
Moon 6:40 AM CST 5:10 PM CST
Length of Visible Light 10h 42m
Length of Day
9h 38m
Waning Crescent, 0% of the Moon is Illuminated
Jan 30
Waning Crescent
Jan 30
New
Feb 6
First Quarter
Feb 14
Full
Feb 22
Last Quarter

Hourly Weather History & Observations

Time (CST) Temp. Windchill Dew Point Humidity Pressure Visibility Wind Dir Wind Speed Gust Speed Precip Events Conditions
12:54 AM 16.0 °F 2.9 °F 5.0 °F 62% 29.65 in 10.0 mi South 11.5 mph - N/A   Clear
1:54 AM 17.1 °F 4.3 °F 6.1 °F 62% 29.63 in 10.0 mi South 11.5 mph - N/A   Clear
2:54 AM 18.0 °F 6.9 °F 7.0 °F 62% 29.62 in 10.0 mi South 9.2 mph - N/A   Clear
3:54 AM 18.0 °F 7.7 °F 7.0 °F 62% 29.61 in 10.0 mi South 8.1 mph - N/A   Mostly Cloudy
4:54 AM 19.0 °F 10.0 °F 8.1 °F 62% 29.60 in 10.0 mi SSE 6.9 mph - N/A   Mostly Cloudy
5:54 AM 19.9 °F 11.1 °F 9.0 °F 62% 29.61 in 10.0 mi South 6.9 mph - N/A   Overcast
6:54 AM 19.9 °F 10.1 °F 12.0 °F 71% 29.62 in 2.5 mi South 8.1 mph - 0.00 in Snow Light Snow
7:40 AM 19.4 °F 10.4 °F 15.8 °F 86% 29.55 in 1.2 mi SSE 6.9 mph - 0.00 in Snow Light Snow
7:54 AM 19.9 °F 11.1 °F 16.0 °F 85% 29.60 in 1.2 mi SSE 6.9 mph - 0.00 in Snow Light Snow
8:33 AM 19.4 °F 11.5 °F 15.8 °F 86% 29.55 in 0.8 mi SSE 5.8 mph - 0.00 in Snow Light Snow
8:54 AM 19.9 °F 11.1 °F 16.0 °F 85% 29.61 in 0.5 mi SSE 6.9 mph - 0.00 in Fog , Snow Light Snow
8:59 AM 19.4 °F 10.4 °F 17.6 °F 93% 29.54 in 0.2 mi SSE 6.9 mph - 0.00 in Fog , Snow Snow
9:18 AM 19.4 °F 11.5 °F 17.6 °F 93% 29.53 in 0.2 mi SSE 5.8 mph - 0.01 in Fog , Snow Snow
9:36 AM 19.4 °F 11.5 °F 17.6 °F 93% 29.53 in 0.5 mi SSE 5.8 mph - 0.02 in Fog , Snow Snow
9:54 AM 19.9 °F 11.1 °F 17.1 °F 89% 29.59 in 0.5 mi SSE 6.9 mph - 0.03 in Fog , Snow Snow
10:04 AM 21.2 °F 13.6 °F 17.6 °F 86% 29.52 in 0.2 mi SSE 5.8 mph - 0.00 in Fog , Snow Snow
10:14 AM 21.2 °F 12.6 °F 17.6 °F 86% 29.52 in 0.5 mi SSE 6.9 mph - 0.00 in Fog , Snow Snow
10:54 AM 21.0 °F 14.6 °F 18.0 °F 88% 29.59 in 0.5 mi South 4.6 mph - 0.02 in Fog , Snow Snow
11:16 AM 21.2 °F 12.6 °F 17.6 °F 86% 29.52 in 0.5 mi South 6.9 mph - 0.01 in Fog , Snow Snow
11:51 AM 21.2 °F 14.9 °F 17.6 °F 86% 29.49 in 0.5 mi SSE 4.6 mph - 0.02 in Fog , Snow Snow
11:54 AM 21.9 °F 15.7 °F 18.0 °F 85% 29.55 in 0.5 mi SSE 4.6 mph - 0.02 in Fog , Snow Snow
12:47 PM 21.2 °F 14.9 °F 17.6 °F 86% 29.46 in 0.2 mi South 4.6 mph - 0.02 in Fog , Snow Snow
12:54 PM 21.9 °F 17.2 °F 18.0 °F 85% 29.51 in 0.5 mi South 3.5 mph - 0.02 in Fog , Snow Light Snow
1:04 PM 21.2 °F 16.4 °F 19.4 °F 93% 29.44 in 0.2 mi South 3.5 mph - 0.01 in Fog , Snow Snow
1:12 PM 21.2 °F 13.6 °F 17.6 °F 86% 29.44 in 0.5 mi South 5.8 mph - 0.01 in Fog , Snow Light Snow
1:54 PM 21.9 °F 17.2 °F 19.0 °F 89% 29.49 in 0.5 mi South 3.5 mph - 0.02 in Fog , Snow Light Snow
2:54 PM 21.9 °F 17.2 °F 19.0 °F 89% 29.51 in 0.5 mi WNW 3.5 mph - 0.00 in Fog , Snow Snow
3:26 PM 21.2 °F 7.3 °F 17.6 °F 86% 29.47 in 0.5 mi NNW 16.1 mph - 0.00 in Fog , Snow Light Snow
3:38 PM 21.2 °F 8.9 °F 15.8 °F 80% 29.47 in 1.2 mi NNW 12.7 mph - 0.00 in Snow Light Snow
3:54 PM 19.9 °F 7.9 °F 15.1 °F 81% 29.55 in 1.5 mi NNW 11.5 mph - 0.00 in Snow Light Snow
4:21 PM 19.4 °F 7.2 °F 14.0 °F 80% 29.50 in 2.0 mi NW 11.5 mph - 0.00 in Snow Light Snow
4:36 PM 19.4 °F 5.5 °F 12.2 °F 74% 29.51 in 4.0 mi NNW 15.0 mph 20.7 mph 0.00 in   Overcast
4:54 PM 19.0 °F 8.2 °F 12.9 °F 77% 29.59 in 4.0 mi NW 9.2 mph - 0.00 in   Haze
5:02 PM 19.4 °F 7.2 °F 14.0 °F 80% 29.53 in 1.8 mi NW 11.5 mph - 0.00 in Snow Light Snow
5:14 PM 17.6 °F 2.2 °F 12.2 °F 79% 29.55 in 3.0 mi NW 17.3 mph 23.0 mph 0.00 in Snow Light Snow
5:27 PM 17.6 °F 3.7 °F 10.4 °F 73% 29.56 in 6.0 mi NW 13.8 mph - 0.00 in   Haze
5:54 PM 16.0 °F 4.4 °F 10.9 °F 81% 29.64 in 10.0 mi NNW 9.2 mph - 0.00 in   Mostly Cloudy
6:54 PM 14.0 °F -0.2 °F 6.1 °F 71% 29.68 in 10.0 mi WNW 12.7 mph - N/A   Mostly Cloudy
7:54 PM 10.9 °F -2.6 °F 3.9 °F 73% 29.73 in 10.0 mi NW 10.4 mph 20.7 mph N/A   Mostly Cloudy
8:07 PM 10.4 °F -4.8 °F 3.2 °F 73% 29.67 in 9.0 mi WNW 12.7 mph 21.9 mph N/A   Scattered Clouds
8:54 PM 9.0 °F -7.3 °F 1.0 °F 70% 29.76 in 10.0 mi WNW 13.8 mph 21.9 mph N/A   Clear
9:17 PM 8.6 °F -3.7 °F 1.4 °F 73% 29.70 in 10.0 mi WNW 8.1 mph - N/A   Mostly Cloudy
9:28 PM 8.6 °F -4.7 °F 1.4 °F 73% 29.71 in 10.0 mi WNW 9.2 mph - N/A   Scattered Clouds
9:54 PM 7.0 °F -6.6 °F -0.0 °F 73% 29.80 in 10.0 mi WNW 9.2 mph - N/A   Clear
10:17 PM 6.8 °F -8.6 °F -0.4 °F 72% 29.73 in 10.0 mi NW 11.5 mph - N/A   Mostly Cloudy
10:27 PM 6.8 °F -5.9 °F -0.4 °F 72% 29.74 in 10.0 mi WNW 8.1 mph - N/A   Scattered Clouds
10:54 PM 7.0 °F -6.6 °F -0.9 °F 70% 29.82 in 10.0 mi WNW 9.2 mph - N/A   Partly Cloudy
11:32 PM 5.0 °F -4.1 °F -0.4 °F 78% 29.76 in 10.0 mi WNW 4.6 mph - N/A   Mostly Cloudy
11:40 PM 5.0 °F -4.1 °F -0.4 °F 78% 29.77 in 10.0 mi West 4.6 mph - N/A   Scattered Clouds
11:54 PM 3.9 °F -5.3 °F -2.0 °F 76% 29.86 in 10.0 mi West 4.6 mph - N/A   Scattered Clouds